Printer-friendly version

IAU Minor Planet Center

Minor Planet Center

MPEC 2008-D43 : 2008 DV

The following Minor Planet Electronic Circular may be linked-to from your own Web pages, but must not otherwise be redistributed electronically.


Read MPEC 2008-D42 Read MPEC 2008-D44


M.P.E.C. 2008-D43                                Issued 2008 Feb. 27, 12:23 UT

     The Minor Planet Electronic Circulars contain information on unusual
         minor planets and routine data on comets.  They are published
   on behalf of Commission 20 of the International Astronomical Union by the
          Minor Planet Center, Smithsonian Astrophysical Observatory,
                          Cambridge, MA 02138, U.S.A.

             Prepared using the Tamkin Foundation Computer Network

                              MPC@CFA.HARVARD.EDU
          URL http://www.cfa.harvard.edu/iau/mpc.html  ISSN 1523-6714

                                    2008 DV

Observations:
     K08D00V* C2008 02 26.11995 04 44 03.55 +31 35 14.6          19.6 V ED043G96
     K08D00V  C2008 02 26.12984 04 44 04.16 +31 34 53.8          19.2 V ED043G96
     K08D00V  C2008 02 26.13972 04 44 04.77 +31 34 33.1          19.6 V ED043G96
     K08D00V  C2008 02 26.14958 04 44 05.38 +31 34 13.0          19.6 V ED043G96
     K08D00V  C2008 02 26.16063 04 44 06.03 +31 33 50.3          19.5 V ED043G96
     K08D00V  C2008 02 26.16268 04 44 06.18 +31 33 45.7          19.8 V ED043G96
     K08D00V  C2008 02 26.16475 04 44 06.32 +31 33 41.8          19.8 V ED043G96
     K08D00V  C2008 02 26.16681 04 44 06.43 +31 33 37.4          19.3 V ED043G96
     K08D00V  C2008 02 26.81418 04 44 48.90 +31 11 27.7          20.5 R ED043461
     K08D00V IC2008 02 26.81902 04 44 49.42 +31 11 16.6                 ED043J95
     K08D00V  C2008 02 26.82347 04 44 49.51 +31 11 09.5                 ED043461
     K08D00V  C2008 02 26.82705 04 44 49.73 +31 11 01.6                 ED043461
     K08D00V  C2008 02 26.83052 04 44 50.07 +31 10 53.0                 ED043J95
     K08D00V  C2008 02 27.09927 04 45 08.10 +31 01 48.5          20.9 V ED043G96
     K08D00V  C2008 02 27.10764 04 45 08.64 +31 01 31.6          20.3 V ED043G96
     K08D00V 5C2008 02 27.11516 04 45 09.22 +31 01 16.6          20.3 R ED043673
     K08D00V  C2008 02 27.11601 04 45 09.18 +31 01 14.3          20.2 V ED043G96
     K08D00V  C2008 02 27.12449 04 45 09.72 +31 00 57.3          20.1 V ED043G96
     K08D00V 5C2008 02 27.12465 04 45 09.81 +31 00 57.1                 ED043673
     K08D00V 5C2008 02 27.12928 04 45 10.07 +31 00 47.0                 ED043673
     K08D00V 5C2008 02 27.13981 04 45 10.73 +31 00 25.6                 ED043673
     K08D00V 5C2008 02 27.14421 04 45 11.00 +31 00 16.6                 ED043673

Observer details:
461 University of Szeged, Piszkesteto Stn. (Konkoly).  Observer K. Sarneczky.
    0.60-m Schmidt + CCD.
673 Table Mountain Observatory, Wrightwood.  Observer J. Young.  0.61-m f/16
    Cassegrain + CCD.
G96 Mt. Lemmon Survey.  Observer R. A. Kowalski.  Measurers E. C. Beshore,
    A. Boattini, G. J. Garradd, A. R. Gibbs, A. D. Grauer, R. E. Hill,
    R. A. Kowalski, S. M. Larson, R. H. McNaught.  1.5-m reflector + CCD.
J95 Great Shefford.  Observer P. Birtwhistle.  0.40-m f/6.0 Schmidt-Cassegrain
    + CCD.

Orbital elements:
2008 DV                                                  Earth MOID = 0.2238 AU
Epoch 2008 Feb. 24.0 TT = JDT 2454520.5                 MPC
M 317.21415              (2000.0)            P               Q
n   0.44467346     Peri.  260.24029     -0.75885825     +0.50129561
a   1.6999726      Node   308.51208     -0.14700515     -0.75373694
e   0.4409830      Incl.   32.09390     -0.63444751     -0.42495099
P   2.22           H   17.9           G   0.15
From 22 observations 2008 Feb. 26-27.

Ephemeris:
2008 DV                  a,e,i = 1.70, 0.44, 32                  q = 0.9503
Date    TT    R. A. (2000) Decl.     Delta      r     Elong.  Phase     V
2008 02 24    04 41.86   +32 48.6    0.844    1.393    98.6    44.6    20.0
2008 03 05    04 53.65   +27 13.9    0.874    1.328    90.6    48.3    20.0
2008 03 15    05 08.42   +22 04.3    0.903    1.264    83.4    51.4    20.1
2008 03 25    05 25.26   +17 12.2    0.928    1.201    77.1    54.0    20.1
2008 04 04    05 43.58   +12 29.5    0.946    1.142    71.8    56.3    20.1
2008 04 14    06 02.99   +07 48.8    0.954    1.086    67.4    58.5    20.1
2008 04 24    06 23.21   +03 04.0    0.952    1.038    64.0    60.6    20.0
2008 05 04    06 44.18   -01 48.9    0.937    0.998    61.6    62.7    20.0
2008 05 14    07 06.06   -06 53.0    0.911    0.969    60.3    65.0    19.9
2008 05 24    07 29.29   -12 09.8    0.872    0.953    60.2    67.2    19.9
2008 06 03    07 54.84   -17 40.1    0.824    0.951    61.3    69.3    19.8
2008 06 13    08 24.43   -23 25.1    0.770    0.964    63.6    70.7    19.7
2008 06 23    09 00.75   -29 22.7    0.713    0.990    67.2    71.2    19.6
2008 07 03    09 47.88   -35 19.7    0.660    1.027    72.0    70.3    19.5
2008 07 13    10 50.61   -40 35.3    0.621    1.074    77.9    67.7    19.4
2008 07 23    12 10.22   -43 45.7    0.604    1.128    84.1    63.7    19.3
2008 08 02    13 37.38   -43 29.3    0.619    1.187    89.7    58.8    19.3
2008 08 12    14 55.89   -40 02.4    0.668    1.249    93.6    54.1    19.5
2008 08 22    15 57.85   -35 05.7    0.749    1.313    95.3    50.1    19.7
2008 09 01    16 45.26   -30 05.8    0.855    1.377    94.9    46.9    20.0
2008 09 11    17 22.61   -25 40.3    0.980    1.442    93.1    44.2    20.3
2008 09 21    17 53.42   -21 55.5    1.119    1.506    90.2    41.8    20.7
2008 10 01    18 20.04   -18 46.0    1.267    1.569    86.7    39.6    21.0
2008 10 11    18 43.94   -16 03.3    1.420    1.630    82.8    37.4    21.2
2008 10 21    19 06.00   -13 40.0    1.578    1.689    78.5    35.3    21.5
2008 10 31    19 26.79   -11 29.8    1.736    1.747    74.1    33.1    21.7
2008 11 10    19 46.70   -09 27.9    1.893    1.802    69.5    31.0    21.9

Timothy B. Spahr             (C) Copyright 2008 MPC           M.P.E.C. 2008-D43

Read MPEC 2008-D42 Read MPEC 2008-D44


Our Web policy. Index to the CBAT/MPC/ICQ pages.


Valid HTML 4.01!